Time,TemperatureF,DewpointF,PressureIn,WindDirection,WindDirectionDegrees,WindSpeedMPH,WindSpeedGustMPH,Humidity,HourlyPrecipIn,Conditions,Clouds,dailyrainin,SoftwareType,DateUTC
2013-01-28 00:00:00,27.5,22.7,26.69,WNW,292,0.0,0.0,82,0.00,,,0.00,VWS V14.01,2013-01-28 07:00:00,
2013-01-28 00:05:00,27.5,22.7,26.69,West,270,0.0,0.0,82,0.00,,,0.00,VWS V14.01,2013-01-28 07:05:00,
2013-01-28 00:10:00,27.5,22.7,26.68,West,270,0.0,0.0,82,0.00,,,0.00,VWS V14.01,2013-01-28 07:10:00,
2013-01-28 00:15:00,27.3,22.5,26.69,West,270,0.0,0.0,82,0.00,,,0.00,VWS V14.01,2013-01-28 07:15:00,
2013-01-28 00:20:00,27.3,22.5,26.69,WNW,292,0.0,0.0,82,0.00,,,0.00,VWS V14.01,2013-01-28 07:20:00,
2013-01-28 00:25:00,27.3,22.5,26.69,NNW,338,0.0,0.0,82,0.00,,,0.00,VWS V14.01,2013-01-28 07:25:00,
2013-01-28 00:31:00,27.1,22.4,26.69,WNW,292,0.0,0.0,82,0.00,,,0.00,VWS V14.01,2013-01-28 07:31:00,
2013-01-28 00:36:00,27.3,22.8,26.69,NW,315,0.0,0.0,83,0.00,,,0.00,VWS V14.01,2013-01-28 07:36:00,
2013-01-28 00:41:00,27.3,22.8,26.69,WNW,292,0.0,0.0,83,0.00,,,0.00,VWS V14.01,2013-01-28 07:41:00,
2013-01-28 00:46:00,27.5,23.0,26.69,NW,315,0.0,0.0,83,0.00,,,0.00,VWS V14.01,2013-01-28 07:46:00,
2013-01-28 00:51:00,27.6,23.1,26.69,West,270,0.0,0.0,83,0.00,,,0.00,VWS V14.01,2013-01-28 07:51:00,
2013-01-28 00:56:00,27.6,23.1,26.69,SSW,202,0.0,0.0,83,0.00,,,0.00,VWS V14.01,2013-01-28 07:56:00,
2013-01-28 01:01:00,28.0,23.5,26.70,SE,135,0.0,0.0,83,0.00,,,0.00,VWS V14.01,2013-01-28 08:01:00,
2013-01-28 01:06:00,28.0,23.5,26.70,North,0,0.0,0.0,83,0.00,,,0.00,VWS V14.01,2013-01-28 08:06:00,
2013-01-28 01:11:00,28.0,23.8,26.69,NNW,338,3.1,3.1,84,0.00,,,0.00,VWS V14.01,2013-01-28 08:11:00,
2013-01-28 01:16:00,28.2,24.0,26.69,NW,315,0.0,0.0,84,0.00,,,0.00,VWS V14.01,2013-01-28 08:16:00,
2013-01-28 01:21:00,28.9,24.7,26.69,NW,315,0.0,2.9,84,0.00,,,0.00,VWS V14.01,2013-01-28 08:21:00,
2013-01-28 01:26:00,29.1,24.9,26.69,NNW,338,0.0,2.9,84,0.00,,,0.00,VWS V14.01,2013-01-28 08:26:00,
2013-01-28 01:31:00,29.1,24.9,26.68,North,0,0.0,0.0,84,0.00,,,0.00,VWS V14.01,2013-01-28 08:31:00,
2013-01-28 01:36:00,29.6,25.4,26.68,NNW,338,7.6,7.6,84,0.00,,,0.00,VWS V14.01,2013-01-28 08:36:00,
2013-01-28 01:41:00,30.0,26.0,26.69,NNW,338,9.6,9.6,85,0.00,,,0.00,VWS V14.01,2013-01-28 08:41:00,
2013-01-28 01:46:00,30.3,26.3,26.69,North,0,9.1,9.1,85,0.00,,,0.00,VWS V14.01,2013-01-28 08:46:00,
2013-01-28 01:51:00,30.7,26.7,26.68,WSW,248,0.0,9.1,85,0.00,,,0.00,VWS V14.01,2013-01-28 08:51:00,
2013-01-28 01:56:00,30.7,26.7,26.69,North,0,7.1,9.1,85,0.00,,,0.00,VWS V14.01,2013-01-28 08:56:00,
2013-01-28 02:02:00,30.9,26.6,26.68,NNW,338,2.4,2.4,84,0.00,,,0.00,VWS V14.01,2013-01-28 09:02:00,
2013-01-28 02:07:00,30.9,26.6,26.68,NNW,338,2.4,2.4,84,0.00,,,0.00,VWS V14.01,2013-01-28 09:07:00,
2013-01-28 02:12:00,31.2,26.9,26.68,NNW,338,6.9,6.9,84,0.00,,,0.00,VWS V14.01,2013-01-28 09:12:00,
2013-01-28 02:17:00,31.2,26.9,26.69,North,0,3.3,3.3,84,0.00,,,0.00,VWS V14.01,2013-01-28 09:17:00,
2013-01-28 02:22:00,31.2,26.9,26.69,North,0,9.6,9.6,84,0.00,,,0.00,VWS V14.01,2013-01-28 09:22:00,
2013-01-28 02:27:00,31.2,26.9,26.69,North,0,2.2,9.8,84,0.00,,,0.00,VWS V14.01,2013-01-28 09:27:00,
2013-01-28 02:32:00,31.6,27.3,26.69,NNE,22,0.0,1.1,84,0.00,,,0.00,VWS V14.01,2013-01-28 09:32:00,
2013-01-28 02:37:00,31.6,27.3,26.70,North,0,4.6,4.9,84,0.00,,,0.00,VWS V14.01,2013-01-28 09:37:00,
2013-01-28 02:42:00,31.6,27.3,26.70,NNW,338,0.0,4.9,84,0.00,,,0.00,VWS V14.01,2013-01-28 09:42:00,
2013-01-28 02:47:00,31.6,27.3,26.70,North,0,4.0,6.4,84,0.00,,,0.00,VWS V14.01,2013-01-28 09:47:00,
2013-01-28 02:52:00,31.6,27.3,26.69,NW,315,5.3,6.4,84,0.00,,,0.00,VWS V14.01,2013-01-28 09:52:00,
2013-01-28 02:57:00,31.8,27.5,26.69,NNW,338,8.5,8.5,84,0.00,,,0.00,VWS V14.01,2013-01-28 09:57:00,
2013-01-28 03:02:00,31.8,27.5,26.69,NNW,338,7.1,7.1,84,0.00,,,0.00,VWS V14.01,2013-01-28 10:02:00,
2013-01-28 03:07:00,31.8,27.5,26.69,North,0,10.0,10.0,84,0.00,,,0.00,VWS V14.01,2013-01-28 10:07:00,
2013-01-28 03:12:00,31.8,27.5,26.68,NNW,338,10.2,10.2,84,0.00,,,0.00,VWS V14.01,2013-01-28 10:12:00,
2013-01-28 03:17:00,31.8,27.5,26.68,North,0,9.8,9.8,84,0.00,,,0.00,VWS V14.01,2013-01-28 10:17:00,
2013-01-28 03:23:00,31.8,27.5,26.68,NNE,22,5.3,11.6,84,0.00,,,0.00,VWS V14.01,2013-01-28 10:23:00,
2013-01-28 03:28:00,31.8,27.5,26.68,WNW,292,10.0,12.0,84,0.00,,,0.00,VWS V14.01,2013-01-28 10:28:00,
2013-01-28 03:33:00,31.8,27.5,26.69,NW,315,6.2,6.2,84,0.00,,,0.00,VWS V14.01,2013-01-28 10:33:00,
2013-01-28 03:38:00,31.8,27.5,26.68,North,0,8.0,9.6,84,0.00,,,0.00,VWS V14.01,2013-01-28 10:38:00,
2013-01-28 03:43:00,31.8,27.5,26.68,NW,315,9.8,9.8,84,0.00,,,0.00,VWS V14.01,2013-01-28 10:43:00,
2013-01-28 03:48:00,31.8,27.5,26.69,North,0,10.2,11.8,84,0.00,,,0.00,VWS V14.01,2013-01-28 10:48:00,
2013-01-28 03:53:00,31.8,27.5,26.70,WNW,292,8.9,11.8,84,0.00,,,0.00,VWS V14.01,2013-01-28 10:53:00,
2013-01-28 03:58:00,31.8,27.5,26.70,North,0,6.0,11.8,84,0.00,,,0.00,VWS V14.01,2013-01-28 10:58:00,
2013-01-28 04:03:00,31.6,27.3,26.70,North,0,4.9,4.9,84,0.00,,,0.00,VWS V14.01,2013-01-28 11:03:00,
2013-01-28 04:08:00,31.8,27.5,26.70,North,0,9.1,9.1,84,0.00,,,0.00,VWS V14.01,2013-01-28 11:08:00,
2013-01-28 04:13:00,31.6,27.3,26.70,NNW,338,5.1,9.1,84,0.00,,,0.00,VWS V14.01,2013-01-28 11:13:00,
2013-01-28 04:18:00,31.6,27.3,26.69,NNW,338,6.0,6.2,84,0.00,,,0.00,VWS V14.01,2013-01-28 11:18:00,
2013-01-28 04:23:00,31.6,27.3,26.69,NNW,338,2.9,6.2,84,0.00,,,0.00,VWS V14.01,2013-01-28 11:23:00,
2013-01-28 04:28:00,31.6,27.3,26.70,NNE,22,0.0,6.2,84,0.00,,,0.00,VWS V14.01,2013-01-28 11:28:00,
2013-01-28 04:33:00,31.6,27.3,26.71,NNW,338,1.3,1.7,84,0.00,,,0.00,VWS V14.01,2013-01-28 11:33:00,
2013-01-28 04:38:00,31.6,27.3,26.71,NNW,338,3.5,3.5,84,0.00,,,0.00,VWS V14.01,2013-01-28 11:38:00,
2013-01-28 04:43:00,31.6,27.3,26.71,NW,315,1.7,3.5,84,0.00,,,0.00,VWS V14.01,2013-01-28 11:43:00,
2013-01-28 04:48:00,31.6,27.3,26.71,NNW,338,4.2,4.2,84,0.00,,,0.00,VWS V14.01,2013-01-28 11:48:00,
2013-01-28 04:53:00,31.6,27.3,26.71,NW,315,2.2,4.2,84,0.00,,,0.00,VWS V14.01,2013-01-28 11:53:00,
2013-01-28 04:58:00,31.6,27.3,26.70,NNE,22,2.0,4.2,84,0.00,,,0.00,VWS V14.01,2013-01-28 11:58:00,
2013-01-28 05:03:00,31.6,27.3,26.69,North,0,3.8,6.4,84,0.00,,,0.00,VWS V14.01,2013-01-28 12:03:00,
2013-01-28 05:08:00,31.2,26.9,26.69,NNE,22,3.5,6.4,84,0.00,,,0.00,VWS V14.01,2013-01-28 12:08:00,
2013-01-28 05:13:00,31.2,26.9,26.69,NW,315,10.2,10.2,84,0.00,,,0.00,VWS V14.01,2013-01-28 12:13:00,
2013-01-28 05:18:00,31.2,26.9,26.70,NNW,338,2.0,5.1,84,0.00,,,0.00,VWS V14.01,2013-01-28 12:18:00,
2013-01-28 05:23:00,31.2,27.2,26.70,NNW,338,3.8,5.1,85,0.00,,,0.00,VWS V14.01,2013-01-28 12:23:00,
2013-01-28 05:28:00,31.2,27.2,26.70,NW,315,5.1,5.1,85,0.00,,,0.00,VWS V14.01,2013-01-28 12:28:00,
2013-01-28 05:34:00,31.2,27.2,26.70,NNE,22,4.0,4.0,85,0.00,,,0.00,VWS V14.01,2013-01-28 12:34:00,
2013-01-28 05:39:00,31.2,27.2,26.70,North,0,1.1,4.4,85,0.00,,,0.00,VWS V14.01,2013-01-28 12:39:00,
2013-01-28 05:44:00,31.2,27.2,26.70,NNW,338,7.1,7.1,85,0.00,,,0.00,VWS V14.01,2013-01-28 12:44:00,
2013-01-28 05:49:00,31.1,27.1,26.70,NNW,338,7.8,8.9,85,0.00,,,0.00,VWS V14.01,2013-01-28 12:49:00,
2013-01-28 05:54:00,31.1,27.1,26.70,NNW,338,9.1,9.1,85,0.00,,,0.00,VWS V14.01,2013-01-28 12:54:00,
2013-01-28 05:59:00,31.1,27.1,26.69,NNW,338,6.4,9.1,85,0.00,,,0.00,VWS V14.01,2013-01-28 12:59:00,
2013-01-28 06:04:00,30.9,26.9,26.69,NNW,338,6.9,12.0,85,0.00,,,0.00,VWS V14.01,2013-01-28 13:04:00,
2013-01-28 06:09:00,30.9,26.9,26.68,NNW,338,7.3,12.0,85,0.00,,,0.00,VWS V14.01,2013-01-28 13:09:00,
2013-01-28 06:14:00,30.9,27.2,26.70,North,0,2.0,12.0,86,0.00,,,0.00,VWS V14.01,2013-01-28 13:14:00,
2013-01-28 06:19:00,30.7,27.0,26.70,NW,315,3.8,5.3,86,0.00,,,0.00,VWS V14.01,2013-01-28 13:19:00,
2013-01-28 06:24:00,30.7,27.0,26.70,NNW,338,1.5,5.3,86,0.00,,,0.00,VWS V14.01,2013-01-28 13:24:00,
2013-01-28 06:29:00,30.7,27.0,26.71,North,0,5.1,5.3,86,0.00,,,0.00,VWS V14.01,2013-01-28 13:29:00,
2013-01-28 06:34:00,30.7,27.0,26.71,North,0,4.0,5.1,86,0.00,,,0.00,VWS V14.01,2013-01-28 13:34:00,
2013-01-28 06:39:00,30.7,27.0,26.71,NNE,22,4.2,5.1,86,0.00,,,0.00,VWS V14.01,2013-01-28 13:39:00,
2013-01-28 06:44:00,30.7,27.0,26.71,NW,315,2.0,5.1,86,0.00,,,0.00,VWS V14.01,2013-01-28 13:44:00,
2013-01-28 06:49:00,30.7,27.0,26.70,North,0,2.0,2.0,86,0.00,,,0.00,VWS V14.01,2013-01-28 13:49:00,
2013-01-28 06:54:00,30.9,27.2,26.71,ENE,68,7.8,7.8,86,0.00,,,0.00,VWS V14.01,2013-01-28 13:54:00,
2013-01-28 06:59:00,30.7,27.0,26.70,NNE,22,0.0,7.8,86,0.00,,,0.00,VWS V14.01,2013-01-28 13:59:00,
2013-01-28 07:04:00,30.7,27.0,26.70,North,0,3.8,6.0,86,0.00,,,0.00,VWS V14.01,2013-01-28 14:04:00,
2013-01-28 07:09:00,30.7,27.0,26.71,North,0,5.1,6.7,86,0.00,,,0.00,VWS V14.01,2013-01-28 14:09:00,
2013-01-28 07:14:00,30.7,27.0,26.70,NNW,338,0.0,6.7,86,0.00,,,0.00,VWS V14.01,2013-01-28 14:14:00,
2013-01-28 07:19:00,30.7,27.0,26.70,NNW,338,2.4,4.2,86,0.00,,,0.00,VWS V14.01,2013-01-28 14:19:00,
2013-01-28 07:24:00,30.7,27.0,26.71,North,0,0.0,5.3,86,0.00,,,0.00,VWS V14.01,2013-01-28 14:24:00,
2013-01-28 07:29:00,30.9,27.2,26.70,North,0,5.5,5.5,86,0.00,,,0.00,VWS V14.01,2013-01-28 14:29:00,
2013-01-28 07:34:00,30.7,27.0,26.70,NNW,338,3.5,5.5,86,0.00,,,0.00,VWS V14.01,2013-01-28 14:34:00,
2013-01-28 07:39:00,30.7,27.0,26.70,North,0,3.8,5.5,86,0.00,,,0.00,VWS V14.01,2013-01-28 14:39:00,
2013-01-28 07:44:00,30.9,27.2,26.70,NNW,338,1.1,5.5,86,0.00,,,0.00,VWS V14.01,2013-01-28 14:44:00,
2013-01-28 07:49:00,30.7,27.0,26.71,North,0,0.0,2.4,86,0.00,,,0.00,VWS V14.01,2013-01-28 14:49:00,
2013-01-28 07:54:00,30.7,27.0,26.71,North,0,0.0,5.1,86,0.00,,,0.00,VWS V14.01,2013-01-28 14:54:00,
2013-01-28 07:59:00,30.9,27.2,26.71,North,0,2.4,5.1,86,0.00,,,0.00,VWS V14.01,2013-01-28 14:59:00,
2013-01-28 08:04:00,30.9,27.2,26.71,NW,315,5.8,5.8,86,0.00,,,0.00,VWS V14.01,2013-01-28 15:04:00,
2013-01-28 08:09:00,30.9,27.2,26.71,NNW,338,5.1,5.8,86,0.00,,,0.00,VWS V14.01,2013-01-28 15:09:00,
2013-01-28 08:14:00,31.2,27.5,26.71,North,0,1.3,6.4,86,0.00,,,0.00,VWS V14.01,2013-01-28 15:14:00,
2013-01-28 08:20:00,31.6,27.6,26.71,NNW,338,0.0,1.3,85,0.00,,,0.00,VWS V14.01,2013-01-28 15:20:00,
2013-01-28 08:25:00,31.8,28.1,26.71,NNE,22,3.8,3.8,86,0.00,,,0.00,VWS V14.01,2013-01-28 15:25:00,
2013-01-28 08:30:00,32.0,28.0,26.71,NNW,338,5.5,5.5,85,0.00,,,0.00,VWS V14.01,2013-01-28 15:30:00,
2013-01-28 08:35:00,32.1,28.1,26.72,NNE,22,3.8,5.8,85,0.00,,,0.00,VWS V14.01,2013-01-28 15:35:00,
2013-01-28 08:40:00,32.1,27.8,26.71,NNW,338,3.8,5.8,84,0.00,,,0.00,VWS V14.01,2013-01-28 15:40:00,
2013-01-28 08:45:00,32.1,27.8,26.71,NE,45,2.4,2.4,84,0.00,,,0.00,VWS V14.01,2013-01-28 15:45:00,
2013-01-28 08:50:00,32.1,27.8,26.71,NNW,338,2.2,2.4,84,0.00,,,0.00,VWS V14.01,2013-01-28 15:50:00,
2013-01-28 08:55:00,31.8,27.5,26.72,NW,315,2.0,5.8,84,0.00,,,0.00,VWS V14.01,2013-01-28 15:55:00,
2013-01-28 09:00:00,32.1,27.8,26.71,NNW,338,4.2,4.2,84,0.00,,,0.00,VWS V14.01,2013-01-28 16:00:00,
2013-01-28 09:05:00,32.3,28.0,26.71,North,0,0.0,4.2,84,0.00,,,0.00,VWS V14.01,2013-01-28 16:05:00,
2013-01-28 09:10:00,32.7,28.4,26.71,NNE,22,5.8,5.8,84,0.00,,,0.00,VWS V14.01,2013-01-28 16:10:00,
2013-01-28 09:15:00,32.9,28.3,26.71,North,0,5.3,5.3,83,0.00,,,0.00,VWS V14.01,2013-01-28 16:15:00,
2013-01-28 09:20:00,33.0,28.4,26.71,NE,45,0.0,5.3,83,0.00,,,0.00,VWS V14.01,2013-01-28 16:20:00,
2013-01-28 09:25:00,33.2,28.3,26.72,NNW,338,7.1,7.1,82,0.00,,,0.00,VWS V14.01,2013-01-28 16:25:00,
2013-01-28 09:30:00,33.0,28.1,26.73,NW,315,0.0,0.0,82,0.00,,,0.00,VWS V14.01,2013-01-28 16:30:00,
2013-01-28 09:35:00,33.0,28.1,26.73,NW,315,0.0,3.5,82,0.00,,,0.00,VWS V14.01,2013-01-28 16:35:00,
2013-01-28 09:40:00,32.9,28.0,26.73,NNW,338,0.0,3.5,82,0.00,,,0.00,VWS V14.01,2013-01-28 16:40:00,
2013-01-28 09:45:00,32.9,28.0,26.73,NW,315,0.0,0.0,82,0.00,,,0.00,VWS V14.01,2013-01-28 16:45:00,
2013-01-28 09:51:00,32.9,28.0,26.74,North,0,3.5,3.5,82,0.00,,,0.00,VWS V14.01,2013-01-28 16:51:00,
2013-01-28 09:56:00,32.9,28.0,26.74,North,0,3.1,5.5,82,0.00,,,0.00,VWS V14.01,2013-01-28 16:56:00,
2013-01-28 10:01:00,32.7,27.8,26.73,North,0,6.4,6.4,82,0.00,,,0.00,VWS V14.01,2013-01-28 17:01:00,
2013-01-28 10:06:00,32.9,28.0,26.73,NNW,338,10.2,10.2,82,0.00,,,0.00,VWS V14.01,2013-01-28 17:06:00,
2013-01-28 10:11:00,32.9,28.0,26.74,NW,315,2.9,10.2,82,0.00,,,0.00,VWS V14.01,2013-01-28 17:11:00,
2013-01-28 10:16:00,33.0,28.1,26.74,North,0,5.5,5.5,82,0.00,,,0.00,VWS V14.01,2013-01-28 17:16:00,
2013-01-28 10:21:00,32.9,28.0,26.74,North,0,7.8,7.8,82,0.00,,,0.00,VWS V14.01,2013-01-28 17:21:00,
2013-01-28 10:26:00,33.0,28.1,26.73,North,0,0.8,7.8,82,0.00,,,0.00,VWS V14.01,2013-01-28 17:26:00,
2013-01-28 10:31:00,33.2,28.0,26.73,NNW,338,2.9,2.9,81,0.00,,,0.00,VWS V14.01,2013-01-28 17:31:00,
2013-01-28 10:36:00,33.4,28.2,26.73,NNW,338,8.7,8.9,81,0.00,,,0.00,VWS V14.01,2013-01-28 17:36:00,
2013-01-28 10:41:00,33.4,28.2,26.73,North,0,5.1,8.9,81,0.00,,,0.00,VWS V14.01,2013-01-28 17:41:00,
2013-01-28 10:46:00,33.6,28.4,26.74,NNW,338,2.0,7.8,81,0.00,,,0.00,VWS V14.01,2013-01-28 17:46:00,
2013-01-28 10:51:00,33.6,28.4,26.74,NW,315,6.2,7.8,81,0.00,,,0.00,VWS V14.01,2013-01-28 17:51:00,
2013-01-28 10:56:00,33.8,28.6,26.74,NW,315,2.9,7.8,81,0.00,,,0.00,VWS V14.01,2013-01-28 17:56:00,
2013-01-28 11:01:00,33.8,28.3,26.74,NNW,338,0.0,3.1,80,0.00,,,0.00,VWS V14.01,2013-01-28 18:01:00,
2013-01-28 11:06:00,33.8,28.3,26.73,North,0,4.0,6.9,80,0.00,,,0.00,VWS V14.01,2013-01-28 18:06:00,
2013-01-28 11:11:00,33.8,28.3,26.73,North,0,2.4,6.9,80,0.00,,,0.00,VWS V14.01,2013-01-28 18:11:00,
2013-01-28 11:16:00,33.8,28.3,26.72,North,0,7.3,8.5,80,0.00,,,0.00,VWS V14.01,2013-01-28 18:16:00,
2013-01-28 11:21:00,33.6,28.1,26.72,NW,315,8.7,8.7,80,0.00,,,0.00,VWS V14.01,2013-01-28 18:21:00,
2013-01-28 11:26:00,33.6,27.8,26.71,WNW,292,3.5,9.6,79,0.00,,,0.00,VWS V14.01,2013-01-28 18:26:00,
2013-01-28 11:31:00,33.4,27.9,26.71,North,0,4.0,4.0,80,0.00,,,0.00,VWS V14.01,2013-01-28 18:31:00,
2013-01-28 11:36:00,33.6,28.1,26.72,NNE,22,0.0,7.8,80,0.00,,,0.00,VWS V14.01,2013-01-28 18:36:00,
2013-01-28 11:41:00,33.6,28.1,26.71,NNW,338,7.1,7.8,80,0.00,,,0.00,VWS V14.01,2013-01-28 18:41:00,
2013-01-28 11:46:00,33.8,28.3,26.71,NE,45,9.3,9.3,80,0.00,,,0.00,VWS V14.01,2013-01-28 18:46:00,
2013-01-28 11:51:00,34.3,28.8,26.71,North,0,0.0,9.3,80,0.00,,,0.00,VWS V14.01,2013-01-28 18:51:00,
2013-01-28 11:56:00,34.5,29.0,26.72,NNW,338,3.8,9.3,80,0.00,,,0.00,VWS V14.01,2013-01-28 18:56:00,
2013-01-28 12:01:00,34.8,29.0,26.71,NNW,338,2.9,6.0,79,0.00,,,0.00,VWS V14.01,2013-01-28 19:01:00,
2013-01-28 12:06:00,34.8,29.0,26.71,NW,315,5.5,6.0,79,0.00,,,0.00,VWS V14.01,2013-01-28 19:06:00,
2013-01-28 12:11:00,34.8,29.0,26.70,NNE,22,1.5,6.0,79,0.00,,,0.00,VWS V14.01,2013-01-28 19:11:00,
2013-01-28 12:17:00,34.8,28.6,26.70,North,0,8.2,8.2,78,0.00,,,0.00,VWS V14.01,2013-01-28 19:17:00,
2013-01-28 12:22:00,35.2,29.0,26.70,NNW,338,6.0,8.2,78,0.00,,,0.00,VWS V14.01,2013-01-28 19:22:00,
2013-01-28 12:27:00,34.8,28.6,26.70,North,0,7.1,8.2,78,0.00,,,0.00,VWS V14.01,2013-01-28 19:27:00,
2013-01-28 12:32:00,34.8,28.6,26.70,NNW,338,6.4,6.4,78,0.00,,,0.00,VWS V14.01,2013-01-28 19:32:00,
2013-01-28 12:37:00,34.8,28.6,26.70,North,0,1.7,6.4,78,0.00,,,0.00,VWS V14.01,2013-01-28 19:37:00,
2013-01-28 12:42:00,34.8,28.6,26.70,NE,45,3.1,6.4,78,0.00,,,0.00,VWS V14.01,2013-01-28 19:42:00,
2013-01-28 12:47:00,34.5,28.4,26.70,NNW,338,0.0,4.6,78,0.00,,,0.00,VWS V14.01,2013-01-28 19:47:00,
2013-01-28 12:52:00,34.5,28.4,26.70,North,0,3.1,4.6,78,0.00,,,0.00,VWS V14.01,2013-01-28 19:52:00,
2013-01-28 12:57:00,34.5,28.4,26.70,North,0,4.9,4.9,78,0.00,,,0.00,VWS V14.01,2013-01-28 19:57:00,
2013-01-28 13:02:00,34.3,28.2,26.70,NNW,338,3.8,3.8,78,0.00,,,0.00,VWS V14.01,2013-01-28 20:02:00,
2013-01-28 13:07:00,34.3,28.5,26.70,North,0,8.5,8.5,79,0.00,,,0.00,VWS V14.01,2013-01-28 20:07:00,
2013-01-28 13:12:00,34.3,28.5,26.69,NNW,338,9.6,9.6,79,0.00,,,0.00,VWS V14.01,2013-01-28 20:12:00,
2013-01-28 13:17:00,34.3,28.5,26.69,North,0,2.9,6.0,79,0.00,,,0.00,VWS V14.01,2013-01-28 20:17:00,
2013-01-28 13:22:00,34.3,28.5,26.69,North,0,0.0,6.0,79,0.00,,,0.00,VWS V14.01,2013-01-28 20:22:00,
2013-01-28 13:27:00,34.3,28.5,26.68,NNW,338,2.9,6.0,79,0.00,,,0.00,VWS V14.01,2013-01-28 20:27:00,
2013-01-28 13:32:00,34.3,28.2,26.68,North,0,7.1,7.6,78,0.00,,,0.00,VWS V14.01,2013-01-28 20:32:00,
2013-01-28 13:37:00,34.3,28.2,26.69,WNW,292,0.0,7.6,78,0.00,,,0.00,VWS V14.01,2013-01-28 20:37:00,
2013-01-28 13:42:00,34.3,28.2,26.68,NNW,338,5.1,7.6,78,0.00,,,0.00,VWS V14.01,2013-01-28 20:42:00,
2013-01-28 13:47:00,34.3,28.2,26.68,NNW,338,0.0,4.9,78,0.00,,,0.00,VWS V14.01,2013-01-28 20:47:00,
2013-01-28 13:52:00,34.3,28.5,26.68,NW,315,3.5,5.1,79,0.00,,,0.00,VWS V14.01,2013-01-28 20:52:00,
2013-01-28 13:57:00,34.3,28.2,26.68,North,0,5.8,7.3,78,0.00,,,0.00,VWS V14.01,2013-01-28 20:57:00,
2013-01-28 14:02:00,34.1,28.0,26.69,NW,315,7.6,7.6,78,0.00,,,0.00,VWS V14.01,2013-01-28 21:02:00,
2013-01-28 14:07:00,33.9,28.1,26.68,NNW,338,3.5,7.6,79,0.00,,,0.00,VWS V14.01,2013-01-28 21:07:00,
2013-01-28 14:12:00,33.9,28.1,26.68,North,0,7.8,7.8,79,0.00,,,0.00,VWS V14.01,2013-01-28 21:12:00,
2013-01-28 14:17:00,33.8,28.0,26.68,NNW,338,7.3,7.3,79,0.00,,,0.00,VWS V14.01,2013-01-28 21:17:00,
2013-01-28 14:22:00,33.6,27.8,26.68,ENE,68,0.0,7.3,79,0.00,,,0.00,VWS V14.01,2013-01-28 21:22:00,
2013-01-28 14:27:00,33.6,27.8,26.68,NW,315,4.4,7.3,79,0.00,,,0.00,VWS V14.01,2013-01-28 21:27:00,
2013-01-28 14:32:00,33.4,27.6,26.68,NNW,338,1.3,6.0,79,0.00,,,0.00,VWS V14.01,2013-01-28 21:32:00,
2013-01-28 14:38:00,33.4,27.6,26.68,North,0,0.0,6.0,79,0.00,,,0.00,VWS V14.01,2013-01-28 21:38:00,
2013-01-28 14:43:00,33.4,27.6,26.68,NNW,338,4.4,6.0,79,0.00,,,0.00,VWS V14.01,2013-01-28 21:43:00,
2013-01-28 14:48:00,33.4,27.6,26.68,North,0,4.4,4.4,79,0.00,,,0.00,VWS V14.01,2013-01-28 21:48:00,
2013-01-28 14:53:00,33.4,27.6,26.68,NE,45,2.4,4.4,79,0.00,,,0.00,VWS V14.01,2013-01-28 21:53:00,
2013-01-28 14:58:00,33.2,27.4,26.68,North,0,6.0,6.0,79,0.00,,,0.00,VWS V14.01,2013-01-28 21:58:00,
2013-01-28 15:03:00,33.0,27.2,26.68,North,0,3.1,7.3,79,0.00,,,0.00,VWS V14.01,2013-01-28 22:03:00,
2013-01-28 15:08:00,33.0,27.2,26.68,NNW,338,5.8,7.3,79,0.00,,,0.00,VWS V14.01,2013-01-28 22:08:00,
2013-01-28 15:13:00,32.7,27.2,26.68,NW,315,5.1,7.3,80,0.00,,,0.00,VWS V14.01,2013-01-28 22:13:00,
2013-01-28 15:18:00,32.5,27.0,26.68,NNW,338,6.0,6.0,80,0.00,,,0.00,VWS V14.01,2013-01-28 22:18:00,
2013-01-28 15:23:00,32.1,26.6,26.68,NNW,338,6.7,6.7,80,0.00,,,0.00,VWS V14.01,2013-01-28 22:23:00,
2013-01-28 15:28:00,31.8,26.6,26.68,NNW,338,0.0,6.7,81,0.00,,,0.00,VWS V14.01,2013-01-28 22:28:00,
2013-01-28 15:33:00,31.8,26.6,26.68,NNW,338,1.7,2.4,81,0.00,,,0.00,VWS V14.01,2013-01-28 22:33:00,
2013-01-28 15:38:00,31.8,26.9,26.68,NNW,338,3.8,3.8,82,0.00,,,0.00,VWS V14.01,2013-01-28 22:38:00,
2013-01-28 15:43:00,31.8,26.9,26.68,NW,315,5.1,5.1,82,0.00,,,0.00,VWS V14.01,2013-01-28 22:43:00,
2013-01-28 15:48:00,31.8,26.9,26.68,NNW,338,5.3,7.3,82,0.00,,,0.00,VWS V14.01,2013-01-28 22:48:00,
2013-01-28 15:53:00,31.6,26.8,26.69,NNW,338,4.6,7.3,82,0.00,,,0.00,VWS V14.01,2013-01-28 22:53:00,
2013-01-28 15:58:00,31.6,26.8,26.68,NNW,338,6.2,7.3,82,0.00,,,0.00,VWS V14.01,2013-01-28 22:58:00,
2013-01-28 16:03:00,31.2,26.4,26.69,NNW,338,5.3,6.0,82,0.00,,,0.00,VWS V14.01,2013-01-28 23:03:00,
2013-01-28 16:08:00,31.2,26.4,26.69,North,0,4.6,6.0,82,0.00,,,0.00,VWS V14.01,2013-01-28 23:08:00,
2013-01-28 16:13:00,31.2,26.4,26.69,North,0,0.0,6.0,82,0.00,,,0.00,VWS V14.01,2013-01-28 23:13:00,
2013-01-28 16:18:00,31.1,26.3,26.69,North,0,0.0,2.4,82,0.00,,,0.00,VWS V14.01,2013-01-28 23:18:00,
2013-01-28 16:23:00,31.1,26.3,26.68,NNW,338,2.0,3.1,82,0.00,,,0.00,VWS V14.01,2013-01-28 23:23:00,
2013-01-28 16:28:00,30.9,26.1,26.68,North,0,3.3,3.3,82,0.00,,,0.00,VWS V14.01,2013-01-28 23:28:00,
2013-01-28 16:33:00,30.7,25.9,26.68,North,0,2.6,3.3,82,0.00,,,0.00,VWS V14.01,2013-01-28 23:33:00,
2013-01-28 16:38:00,30.7,25.9,26.68,NNW,338,1.5,3.3,82,0.00,,,0.00,VWS V14.01,2013-01-28 23:38:00,
2013-01-28 16:44:00,30.7,26.2,26.69,NE,45,0.0,3.3,83,0.00,,,0.00,VWS V14.01,2013-01-28 23:44:00,
2013-01-28 16:49:00,30.7,26.2,26.69,North,0,0.0,0.0,83,0.00,,,0.00,VWS V14.01,2013-01-28 23:49:00,
2013-01-28 16:54:00,30.7,26.2,26.69,NNW,338,0.0,0.0,83,0.00,,,0.00,VWS V14.01,2013-01-28 23:54:00,
2013-01-28 16:59:00,30.5,26.0,26.68,NNW,338,0.0,0.0,83,0.00,,,0.00,VWS V14.01,2013-01-28 23:59:00,
2013-01-28 17:04:00,30.5,26.0,26.69,NNW,338,0.0,0.0,83,0.00,,,0.00,VWS V14.01,2013-01-29 00:04:00,
2013-01-28 17:09:00,30.3,25.8,26.68,NNW,338,0.0,0.0,83,0.00,,,0.00,VWS V14.01,2013-01-29 00:09:00,
2013-01-28 17:14:00,30.3,25.8,26.69,NNW,338,0.0,0.0,83,0.00,,,0.00,VWS V14.01,2013-01-29 00:14:00,
2013-01-28 17:19:00,30.2,25.7,26.70,NNW,338,0.0,0.0,83,0.00,,,0.00,VWS V14.01,2013-01-29 00:19:00,
2013-01-28 17:24:00,30.0,25.5,26.69,NW,315,0.0,0.0,83,0.00,,,0.00,VWS V14.01,2013-01-29 00:24:00,
2013-01-28 17:29:00,30.0,25.5,26.70,WNW,292,0.0,0.0,83,0.00,,,0.00,VWS V14.01,2013-01-29 00:29:00,
2013-01-28 17:34:00,29.8,25.3,26.69,WNW,292,0.0,0.0,83,0.00,,,0.00,VWS V14.01,2013-01-29 00:34:00,
2013-01-28 17:39:00,29.8,25.3,26.69,WNW,292,0.0,0.0,83,0.00,,,0.00,VWS V14.01,2013-01-29 00:39:00,
2013-01-28 17:44:00,29.8,25.3,26.69,WNW,292,0.0,0.0,83,0.00,,,0.00,VWS V14.01,2013-01-29 00:44:00,
2013-01-28 17:49:00,29.6,25.1,26.70,WNW,292,0.0,0.0,83,0.00,,,0.00,VWS V14.01,2013-01-29 00:49:00,
2013-01-28 17:54:00,29.4,24.9,26.70,WNW,292,0.0,0.0,83,0.00,,,0.00,VWS V14.01,2013-01-29 00:54:00,
2013-01-28 17:59:00,29.4,24.9,26.69,WNW,292,0.0,0.0,83,0.00,,,0.00,VWS V14.01,2013-01-29 00:59:00,
2013-01-28 18:04:00,29.3,24.8,26.69,WNW,292,0.0,0.0,83,0.00,,,0.00,VWS V14.01,2013-01-29 01:04:00,
2013-01-28 18:09:00,29.3,24.8,26.69,WNW,292,0.0,0.0,83,0.00,,,0.00,VWS V14.01,2013-01-29 01:09:00,
2013-01-28 18:14:00,29.3,24.8,26.70,SE,135,0.0,0.0,83,0.00,,,0.00,VWS V14.01,2013-01-29 01:14:00,
2013-01-28 18:19:00,29.1,24.6,26.70,SE,135,0.0,0.0,83,0.00,,,0.00,VWS V14.01,2013-01-29 01:19:00,
2013-01-28 18:24:00,28.9,24.4,26.69,SE,135,0.0,0.0,83,0.00,,,0.00,VWS V14.01,2013-01-29 01:24:00,
2013-01-28 18:29:00,28.7,24.2,26.68,East,90,0.0,0.0,83,0.00,,,0.00,VWS V14.01,2013-01-29 01:29:00,
2013-01-28 18:34:00,28.7,24.2,26.69,East,90,0.0,0.0,83,0.00,,,0.00,VWS V14.01,2013-01-29 01:34:00,
2013-01-28 18:39:00,28.7,24.5,26.69,East,90,0.0,0.0,84,0.00,,,0.00,VWS V14.01,2013-01-29 01:39:00,
2013-01-28 18:44:00,28.7,24.5,26.69,East,90,0.0,0.0,84,0.00,,,0.00,VWS V14.01,2013-01-29 01:44:00,
2013-01-28 18:49:00,28.9,24.7,26.69,East,90,0.0,0.0,84,0.00,,,0.00,VWS V14.01,2013-01-29 01:49:00,
2013-01-28 18:54:00,28.9,24.7,26.69,East,90,0.0,0.0,84,0.00,,,0.00,VWS V14.01,2013-01-29 01:54:00,
2013-01-28 18:59:00,29.1,24.9,26.70,East,90,0.0,0.0,84,0.00,,,0.00,VWS V14.01,2013-01-29 01:59:00,
2013-01-28 19:04:00,29.1,24.9,26.69,East,90,0.0,0.0,84,0.00,,,0.00,VWS V14.01,2013-01-29 02:04:00,
2013-01-28 19:09:00,29.1,24.9,26.68,East,90,0.0,0.0,84,0.00,,,0.00,VWS V14.01,2013-01-29 02:09:00,
2013-01-28 19:14:00,29.1,24.9,26.69,East,90,0.0,0.0,84,0.00,,,0.00,VWS V14.01,2013-01-29 02:14:00,
2013-01-28 19:19:00,29.1,24.9,26.70,East,90,0.0,0.0,84,0.00,,,0.00,VWS V14.01,2013-01-29 02:19:00,
2013-01-28 19:24:00,29.1,24.6,26.71,East,90,0.0,0.0,83,0.00,,,0.00,VWS V14.01,2013-01-29 02:24:00,
2013-01-28 19:29:00,28.9,24.7,26.70,SSW,202,0.0,0.0,84,0.00,,,0.00,VWS V14.01,2013-01-29 02:29:00,
2013-01-28 19:35:00,28.9,24.7,26.70,SSW,202,0.0,0.0,84,0.00,,,0.00,VWS V14.01,2013-01-29 02:35:00,
2013-01-28 19:40:00,28.7,24.5,26.70,SSW,202,0.0,0.0,84,0.00,,,0.00,VWS V14.01,2013-01-29 02:40:00,
2013-01-28 19:45:00,28.7,24.2,26.70,SSW,202,0.0,0.0,83,0.00,,,0.00,VWS V14.01,2013-01-29 02:45:00,
2013-01-28 19:50:00,28.7,24.2,26.70,SSW,202,0.0,0.0,83,0.00,,,0.00,VWS V14.01,2013-01-29 02:50:00,
2013-01-28 19:55:00,28.7,24.2,26.69,SSW,202,0.0,0.0,83,0.00,,,0.00,VWS V14.01,2013-01-29 02:55:00,
2013-01-28 20:00:00,28.7,24.2,26.70,SSW,202,0.0,0.0,83,0.00,,,0.00,VWS V14.01,2013-01-29 03:00:00,
2013-01-28 20:05:00,28.7,24.2,26.70,SSW,202,0.0,0.0,83,0.00,,,0.00,VWS V14.01,2013-01-29 03:05:00,
2013-01-28 20:10:00,28.7,24.2,26.69,SSW,202,0.0,0.0,83,0.00,,,0.00,VWS V14.01,2013-01-29 03:10:00,
2013-01-28 20:15:00,28.7,24.5,26.69,SSW,202,0.0,0.0,84,0.00,,,0.00,VWS V14.01,2013-01-29 03:15:00,
2013-01-28 20:20:00,28.7,24.5,26.70,SSW,202,0.0,0.0,84,0.00,,,0.00,VWS V14.01,2013-01-29 03:20:00,
2013-01-28 20:25:00,28.7,24.5,26.69,SSW,202,0.0,0.0,84,0.00,,,0.00,VWS V14.01,2013-01-29 03:25:00,
2013-01-28 20:30:00,28.7,24.2,26.68,SSW,202,0.0,0.0,83,0.00,,,0.00,VWS V14.01,2013-01-29 03:30:00,
2013-01-28 20:35:00,28.7,24.2,26.68,SSW,202,0.0,0.0,83,0.00,,,0.00,VWS V14.01,2013-01-29 03:35:00,
2013-01-28 20:40:00,28.5,24.0,26.68,SSW,202,0.0,0.0,83,0.00,,,0.00,VWS V14.01,2013-01-29 03:40:00,
2013-01-28 20:45:00,28.5,24.0,26.69,SSW,202,0.0,0.0,83,0.00,,,0.00,VWS V14.01,2013-01-29 03:45:00,
2013-01-28 20:50:00,28.5,24.0,26.68,SSW,202,0.0,0.0,83,0.00,,,0.00,VWS V14.01,2013-01-29 03:50:00,
2013-01-28 20:55:00,28.5,24.0,26.68,SSW,202,0.0,0.0,83,0.00,,,0.00,VWS V14.01,2013-01-29 03:55:00,
2013-01-28 21:00:00,28.5,24.0,26.68,SSW,202,0.0,0.0,83,0.00,,,0.00,VWS V14.01,2013-01-29 04:00:00,
2013-01-28 21:05:00,28.5,24.0,26.68,SSW,202,0.0,0.0,83,0.00,,,0.00,VWS V14.01,2013-01-29 04:05:00,
2013-01-28 21:11:00,28.5,24.0,26.68,SSW,202,0.0,0.0,83,0.00,,,0.00,VWS V14.01,2013-01-29 04:11:00,
2013-01-28 21:16:00,28.5,24.0,26.68,SSW,202,0.0,0.0,83,0.00,,,0.00,VWS V14.01,2013-01-29 04:16:00,
2013-01-28 21:21:00,28.4,23.9,26.68,SSW,202,0.0,0.0,83,0.00,,,0.00,VWS V14.01,2013-01-29 04:21:00,
2013-01-28 21:26:00,28.4,23.9,26.68,SW,225,0.0,0.0,83,0.00,,,0.00,VWS V14.01,2013-01-29 04:26:00,
2013-01-28 21:31:00,28.2,23.7,26.67,WSW,248,0.0,0.0,83,0.00,,,0.00,VWS V14.01,2013-01-29 04:31:00,
2013-01-28 21:36:00,28.2,23.7,26.67,WSW,248,0.0,0.0,83,0.00,,,0.00,VWS V14.01,2013-01-29 04:36:00,
2013-01-28 21:41:00,28.2,23.7,26.68,WSW,248,0.0,0.0,83,0.00,,,0.00,VWS V14.01,2013-01-29 04:41:00,
2013-01-28 21:46:00,28.2,23.7,26.67,WSW,248,0.0,0.0,83,0.00,,,0.00,VWS V14.01,2013-01-29 04:46:00,
2013-01-28 21:51:00,28.2,23.7,26.67,WSW,248,0.0,0.0,83,0.00,,,0.00,VWS V14.01,2013-01-29 04:51:00,
2013-01-28 21:56:00,28.0,23.5,26.67,WSW,248,0.0,0.0,83,0.00,,,0.00,VWS V14.01,2013-01-29 04:56:00,
2013-01-28 22:00:00,28.0,23.5,26.67,WSW,248,0.0,0.0,83,0.00,,,0.00,VWS V14.01,2013-01-29 05:00:00,
2013-01-28 22:01:00,28.0,23.5,26.67,WSW,248,0.0,0.0,83,0.00,,,0.00,VWS V14.01,2013-01-29 05:01:00,
2013-01-28 22:04:00,28.0,23.5,26.67,WSW,248,0.0,0.0,83,0.00,,,0.00,VWS V14.01,2013-01-29 05:04:00,
2013-01-28 22:06:00,28.0,23.5,26.67,WSW,248,0.0,0.0,83,0.00,,,0.00,VWS V14.01,2013-01-29 05:06:00,
2013-01-28 22:12:00,28.0,23.5,26.68,WSW,248,0.0,0.0,83,0.00,,,0.00,VWS V14.01,2013-01-29 05:12:00,
2013-01-28 22:17:00,28.0,23.5,26.67,WSW,248,0.0,0.0,83,0.00,,,0.00,VWS V14.01,2013-01-29 05:17:00,
2013-01-28 22:22:00,28.0,23.5,26.66,WSW,248,0.0,0.0,83,0.00,,,0.00,VWS V14.01,2013-01-29 05:22:00,
2013-01-28 22:27:00,27.6,23.1,26.66,WSW,248,0.0,0.0,83,0.00,,,0.00,VWS V14.01,2013-01-29 05:27:00,
2013-01-28 22:32:00,27.6,23.1,26.66,SSW,202,0.0,0.0,83,0.00,,,0.00,VWS V14.01,2013-01-29 05:32:00,
2013-01-28 22:37:00,27.6,23.1,26.66,SSW,202,0.0,0.0,83,0.00,,,0.00,VWS V14.01,2013-01-29 05:37:00,
2013-01-28 22:42:00,27.5,23.0,26.66,SSW,202,0.0,0.0,83,0.00,,,0.00,VWS V14.01,2013-01-29 05:42:00,
2013-01-28 22:47:00,27.3,22.8,26.66,SSW,202,0.0,0.0,83,0.00,,,0.00,VWS V14.01,2013-01-29 05:47:00,
2013-01-28 22:52:00,27.1,22.6,26.65,SSW,202,0.0,0.0,83,0.00,,,0.00,VWS V14.01,2013-01-29 05:52:00,
2013-01-28 22:57:00,27.1,22.6,26.65,SSW,202,0.0,0.0,83,0.00,,,0.00,VWS V14.01,2013-01-29 05:57:00,
2013-01-28 23:02:00,26.7,22.2,26.66,SSW,202,0.0,0.0,83,0.00,,,0.00,VWS V14.01,2013-01-29 06:02:00,
2013-01-28 23:07:00,26.4,22.0,26.65,SSW,202,0.0,0.0,83,0.00,,,0.00,VWS V14.01,2013-01-29 06:07:00,
2013-01-28 23:12:00,26.4,22.0,26.65,SSW,202,0.0,0.0,83,0.00,,,0.00,VWS V14.01,2013-01-29 06:12:00,
2013-01-28 23:17:00,25.8,21.1,26.66,SSW,202,0.0,0.0,82,0.00,,,0.00,VWS V14.01,2013-01-29 06:17:00,
2013-01-28 23:22:00,25.5,20.8,26.65,SSW,202,0.0,0.0,82,0.00,,,0.00,VWS V14.01,2013-01-29 06:22:00,
2013-01-28 23:27:00,24.9,20.2,26.65,SSW,202,0.0,0.0,82,0.00,,,0.00,VWS V14.01,2013-01-29 06:27:00,
2013-01-28 23:32:00,24.6,19.9,26.66,SSW,202,0.0,0.0,82,0.00,,,0.00,VWS V14.01,2013-01-29 06:32:00,
2013-01-28 23:37:00,24.0,19.3,26.66,SSW,202,0.0,0.0,82,0.00,,,0.00,VWS V14.01,2013-01-29 06:37:00,
2013-01-28 23:42:00,23.5,18.8,26.66,SSW,202,0.0,0.0,82,0.00,,,0.00,VWS V14.01,2013-01-29 06:42:00,
2013-01-28 23:47:00,23.1,18.4,26.66,SSW,202,0.0,0.0,82,0.00,,,0.00,VWS V14.01,2013-01-29 06:47:00,
2013-01-28 23:52:00,23.0,18.3,26.65,SSW,202,0.0,0.0,82,0.00,,,0.00,VWS V14.01,2013-01-29 06:52:00,
2013-01-28 23:57:00,22.8,18.1,26.65,SSW,202,0.0,0.0,82,0.00,,,0.00,VWS V14.01,2013-01-29 06:57:00,